EN

Hourly Weather Amelie-les-Bains-Palalda

Today, 24 January, Sunday

Time Temperature Precipitation Wind Pressure Humidity
00:00 +4°C° 0.1 mm 1 mps 700 mmHg 86%
01:00 +4°C° 0.4 mm 1 mps 699 mmHg 88%
02:00 +4°C° 0.4 mm 1 mps 699 mmHg 91%
03:00 +3°C° 0.4 mm 2 mps 698 mmHg 94%
04:00 +1°C° 0.3 mm 3 mps 699 mmHg 94%
05:00 +1°C° 0.3 mm 3 mps 700 mmHg 93%
06:00 0°C° 0.3 mm 4 mps 700 mmHg 93%
07:00 0°C° 0 mm 4 mps 701 mmHg 89%
08:00 +1°C° 0 mm 4 mps 702 mmHg 84%
09:00 +1°C° 0 mm 4 mps 703 mmHg 80%
10:00 +4°C° 0 mm 3 mps 703 mmHg 71%
11:00 +5°C° 0 mm 3 mps 704 mmHg 63%
12:00 +8°C° 0 mm 3 mps 704 mmHg 55%
13:00 +8°C° 0 mm 3 mps 704 mmHg 56%
14:00 +8°C° 0 mm 3 mps 704 mmHg 58%
15:00 +8°C° 0 mm 3 mps 705 mmHg 60%
16:00 +6°C° 0.1 mm 2 mps 705 mmHg 69%
17:00 +5°C° 0.1 mm 2 mps 705 mmHg 77%
18:00 +4°C° 0.1 mm 2 mps 705 mmHg 86%
19:00 +3°C° 0.4 mm 2 mps 705 mmHg 86%
20:00 +3°C° 0.4 mm 2 mps 706 mmHg 87%
21:00 +2°C° 0.4 mm 3 mps 706 mmHg 87%
22:00 +2°C° 0.2 mm 3 mps 707 mmHg 88%
23:00 +2°C° 0.2 mm 3 mps 707 mmHg 88%

Tomorrow, 25 January, Monday

Time Temperature Precipitation Wind Pressure Humidity
00:00 +1°C° 0.2 mm 3 mps 708 mmHg 88%
01:00 +1°C° 0.1 mm 3 mps 708 mmHg 88%
02:00 +1°C° 0.1 mm 3 mps 708 mmHg 87%
03:00 +1°C° 0.1 mm 3 mps 708 mmHg 87%
04:00 +1°C° 0 mm 3 mps 709 mmHg 86%
05:00 +1°C° 0 mm 2 mps 709 mmHg 86%
06:00 +1°C° 0 mm 2 mps 710 mmHg 86%
07:00 +2°C° 0 mm 2 mps 710 mmHg 82%
08:00 +3°C° 0 mm 2 mps 711 mmHg 77%
09:00 +3°C° 0 mm 2 mps 712 mmHg 73%
10:00 +5°C° 0 mm 2 mps 712 mmHg 68%
11:00 +6°C° 0 mm 2 mps 712 mmHg 63%
12:00 +7°C° 0 mm 2 mps 712 mmHg 58%
13:00 +7°C° 0 mm 2 mps 712 mmHg 61%
14:00 +7°C° 0 mm 2 mps 712 mmHg 63%
15:00 +6°C° 0 mm 2 mps 712 mmHg 66%
16:00 +5°C° 0 mm 2 mps 712 mmHg 72%
17:00 +4°C° 0 mm 2 mps 712 mmHg 79%
18:00 +4°C° 0 mm 1 mps 713 mmHg 85%
19:00 +4°C° 0 mm 1 mps 713 mmHg 86%
20:00 +4°C° 0 mm 1 mps 713 mmHg 86%
21:00 +3°C° 0 mm 1 mps 714 mmHg 87%
22:00 +3°C° 0 mm 1 mps 714 mmHg 86%
23:00 +3°C° 0 mm 1 mps 714 mmHg 85%

Day after tomorrow, 26 January, Tuesday

Time Temperature Precipitation Wind Pressure Humidity
00:00 +2°C° 0 mm 1 mps 714 mmHg 85%
01:00 +2°C° 0 mm 1 mps 714 mmHg 84%
02:00 +2°C° 0 mm 1 mps 714 mmHg 83%
03:00 +2°C° 0 mm 1 mps 714 mmHg 82%
04:00 +2°C° 0 mm 1 mps 714 mmHg 80%
05:00 +2°C° 0 mm 1 mps 714 mmHg 78%
06:00 +2°C° 0 mm 1 mps 714 mmHg 77%
07:00 +3°C° 0 mm 1 mps 714 mmHg 73%
08:00 +5°C° 0 mm 1 mps 715 mmHg 69%
09:00 +6°C° 0 mm 1 mps 715 mmHg 66%
10:00 +7°C° 0 mm 1 mps 715 mmHg 63%
11:00 +8°C° 0 mm 1 mps 715 mmHg 61%
12:00 +9°C° 0 mm 1 mps 715 mmHg 59%
13:00 +9°C° 0 mm 1 mps 714 mmHg 61%
14:00 +9°C° 0 mm 1 mps 714 mmHg 63%
15:00 +9°C° 0 mm 1 mps 714 mmHg 65%
16:00 +8°C° 0 mm 1 mps 714 mmHg 69%
17:00 +7°C° 0 mm 1 mps 714 mmHg 73%
18:00 +7°C° 0 mm 1 mps 713 mmHg 77%
19:00 +7°C° 0 mm 1 mps 714 mmHg 76%
20:00 +7°C° 0 mm 1 mps 714 mmHg 76%
21:00 +7°C° 0 mm 1 mps 714 mmHg 75%
22:00 +8°C° 0 mm 1 mps 714 mmHg 76%
23:00 +8°C° 0 mm 1 mps 714 mmHg 76%

27 January, Wednesday

Time Temperature Precipitation Wind Pressure Humidity
00:00 +8°C° 0 mm 1 mps 715 mmHg 77%
01:00 +8°C° 0 mm 1 mps 715 mmHg 77%
02:00 +8°C° 0 mm 1 mps 714 mmHg 78%
03:00 +9°C° 0 mm 1 mps 714 mmHg 78%
04:00 +8°C° 0 mm 1 mps 715 mmHg 78%
05:00 +8°C° 0 mm 1 mps 715 mmHg 79%
06:00 +8°C° 0 mm 1 mps 715 mmHg 79%
07:00 +8°C° 0 mm 2 mps 715 mmHg 78%
08:00 +9°C° 0 mm 2 mps 716 mmHg 76%
09:00 +9°C° 0 mm 2 mps 716 mmHg 74%
10:00 +12°C° 0 mm 2 mps 716 mmHg 70%
11:00 +13°C° 0 mm 2 mps 717 mmHg 66%
12:00 +14°C° 0 mm 2 mps 717 mmHg 62%
13:00 +14°C° 0 mm 2 mps 716 mmHg 64%
14:00 +14°C° 0 mm 2 mps 716 mmHg 66%
15:00 +13°C° 0 mm 2 mps 716 mmHg 69%
16:00 +12°C° 0 mm 2 mps 716 mmHg 72%
17:00 +9°C° 0 mm 2 mps 716 mmHg 75%
18:00 +9°C° 0 mm 1 mps 716 mmHg 78%
19:00 +9°C° 0 mm 1 mps 716 mmHg 75%
20:00 +8°C° 0 mm 1 mps 716 mmHg 71%
21:00 +8°C° 0 mm 1 mps 716 mmHg 68%
22:00 +8°C° 0 mm 1 mps 716 mmHg 64%
23:00 +9°C° 0 mm 1 mps 716 mmHg 61%

28 January, Thursday

Time Temperature Precipitation Wind Pressure Humidity
00:00 +9°C° 0 mm 1 mps 716 mmHg 57%
01:00 +9°C° 0 mm 1 mps 715 mmHg 57%
02:00 +9°C° 0 mm 1 mps 715 mmHg 57%
03:00 +9°C° 0 mm 1 mps 715 mmHg 58%
04:00 +9°C° 0 mm 1 mps 715 mmHg 58%
05:00 +9°C° 0 mm 1 mps 715 mmHg 59%
06:00 +9°C° 0 mm 1 mps 715 mmHg 59%
07:00 +10°C° 0 mm 1 mps 716 mmHg 60%
08:00 +11°C° 0 mm 1 mps 716 mmHg 61%
09:00 +12°C° 0 mm 1 mps 716 mmHg 61%
10:00 +13°C° 0 mm 1 mps 717 mmHg 59%
11:00 +14°C° 0 mm 1 mps 717 mmHg 57%
12:00 +16°C° 0 mm 1 mps 717 mmHg 55%
13:00 +15°C° 0 mm 1 mps 717 mmHg 60%
14:00 +14°C° 0 mm 1 mps 716 mmHg 65%
15:00 +14°C° 0 mm 1 mps 716 mmHg 70%
16:00 +13°C° 0 mm 1 mps 716 mmHg 75%
17:00 +12°C° 0 mm 1 mps 716 mmHg 79%
18:00 +10°C° 0 mm 1 mps 716 mmHg 83%

29 January, Friday

Time Temperature Precipitation Wind Pressure Humidity
Show more